{"data":{"norad_id":57239,"epoch":"2026-05-24T21:32:31.579008Z","epoch_age_seconds":97993,"freshness":"FRESH","line1":"1 57239U 23094X   26144.89758772  .00001209  00000+0  53477-4 0  9995","line2":"2 57239  43.0047 320.0603 0002002 273.4106  86.6517 15.27580355158779","mean_motion":15.27580355,"eccentricity":0.0002002,"inclination_deg":43.0047,"raan_deg":320.0603,"arg_perigee_deg":273.4106,"mean_anomaly_deg":86.6517,"bstar":5.3477e-5,"rev_number":15877,"period_min":94.266726806656,"perigee_km":481.67442379853,"apogee_km":484.42164228576,"semimajor_km":6861.1850330421,"source":"CELESTRAK","updated_at":"2026-05-25T13:38:18.256358Z"}}